CW0962 Weather Reports


time (UTC)temp
F
wind
direction
speed
knots
gust
knots
rain 1hr
in
rain 24hr
in
rain mn
in
humidity
%
barometer
mb
20260507070009 56 178 0.0 4.3 0.00 0.31 0.00 91 1003.9
20260507065006 56 205 0.0 0.9 0.00 0.31 0.00 91 1004.1
20260507064514 56 205 0.0 4.3 0.00 0.31 0.00 91 1004.0
20260507064021 56 205 0.0 4.3 0.00 0.31 0.00 91 1003.9
20260507063028 56 200 0.9 4.3 0.00 0.31 0.00 91 1003.7
20260507062517 56 218 0.9 5.2 0.00 0.31 0.00 90 1003.8
20260507061511 56 183 0.0 5.2 0.00 0.31 0.00 90 1004.1
20260507061008 56 183 0.9 5.2 0.00 0.31 0.00 90 1004.2
20260507060514 56 183 1.7 5.2 0.00 0.31 0.00 90 1004.2
20260507060000 56 196 1.7 6.1 0.00 0.31 0.00 90 1004.3
20260507055458 56 182 1.7 6.1 0.00 0.31 0.00 90 1004.5
20260507055000 56 178 1.7 6.1 0.00 0.31 0.00 90 1004.3
20260507054458 56 180 1.7 7.0 0.00 0.31 0.00 90 1004.3
20260507054004 56 219 2.6 7.0 0.00 0.31 0.00 90 1004.5
20260507053511 57 212 2.6 7.8 0.00 0.31 0.00 90 1004.5
20260507053012 57 190 2.6 7.8 0.00 0.31 0.00 90 1004.5
20260507052500 57 196 2.6 7.0 0.00 0.31 0.00 90 1004.4
20260507052007 57 199 2.6 7.0 0.00 0.31 0.00 90 1004.7
20260507051507 57 190 3.5 7.0 0.00 0.31 0.00 90 1004.7
20260507051018 57 194 3.5 7.0 0.00 0.31 0.00 90 1004.8
20260507050007 57 188 2.6 7.0 0.00 0.31 0.00 90 1004.8
20260507045459 57 202 1.7 7.8 0.00 0.31 0.00 90 1004.9
20260507043958 57 207 3.5 12.2 0.00 0.31 0.00 90 1004.7
20260507043521 57 176 3.5 12.2 0.00 0.31 0.00 90 1004.7
20260507043010 57 207 3.5 12.2 0.00 0.31 0.00 90 1004.8
20260507042459 57 188 3.5 8.7 0.00 0.31 0.00 90 1004.7
20260507042001 57 166 3.5 13.0 0.00 0.31 0.00 90 1004.7
20260507041510 57 239 2.6 13.0 0.00 0.31 0.00 90 1004.7
20260507041023 57 209 3.5 9.6 0.00 0.31 0.00 90 1004.6
20260507040501 57 248 3.5 9.6 0.00 0.31 0.00 90 1004.7
20260507035501 57 207 4.3 13.0 0.00 0.31 0.31 90 1004.7
20260507035005 57 170 4.3 12.2 0.00 0.31 0.31 90 1004.8
20260507034018 57 200 4.3 10.4 0.00 0.31 0.31 90 1005.0
20260507033507 57 164 4.3 13.9 0.00 0.31 0.31 90 1005.0
20260507033011 57 207 5.2 16.5 0.00 0.31 0.31 90 1005.0
20260507032502 57 196 5.2 16.5 0.00 0.31 0.31 90 1004.9
20260507032009 57 266 5.2 13.0 0.00 0.31 0.31 90 1004.8
20260507031501 57 206 5.2 13.9 0.00 0.31 0.31 90 1004.7
20260507030505 57 170 4.3 13.9 0.00 0.31 0.31 90 1004.6
20260507030002 57 134 4.3 12.2 0.00 0.31 0.31 90 1004.4
20260507025532 57 197 5.2 12.2 0.00 0.31 0.31 90 1004.2
20260507025006 57 180 5.2 13.0 0.00 0.31 0.31 90 1004.3
20260507024005 57 235 5.2 13.9 0.00 0.31 0.31 90 1004.4
20260507023527 57 186 5.2 13.9 0.00 0.31 0.31 90 1004.5
20260507023009 57 180 3.5 13.9 0.00 0.31 0.31 90 1004.6
20260507022523 57 162 4.3 12.2 0.00 0.31 0.31 90 1004.7
20260507021505 57 160 4.3 11.3 0.00 0.31 0.31 90 1004.9
20260507021011 57 192 6.1 13.9 0.00 0.31 0.31 90 1005.0
20260507020503 57 172 6.1 13.9 0.00 0.31 0.31 90 1005.0
20260507020028 57 229 5.2 11.3 0.00 0.31 0.31 90 1005.1
20260507015504 57 167 5.2 13.0 0.00 0.31 0.31 90 1005.3
20260507015001 57 212 5.2 13.0 0.01 0.31 0.31 90 1005.3
20260507014516 57 163 5.2 12.2 0.01 0.31 0.31 90 1005.4
20260507014009 57 170 6.1 12.2 0.01 0.31 0.31 90 1005.5
20260507013513 57 176 5.2 12.2 0.01 0.31 0.31 90 1005.5
20260507013009 57 182 5.2 13.9 0.01 0.31 0.31 90 1005.5
20260507012505 57 175 5.2 13.9 0.02 0.31 0.31 89 1005.6
20260507011505 58 158 5.2 20.0 0.05 0.31 0.31 90 1005.5
20260507011002 58 115 6.1 20.0 0.05 0.31 0.31 90 1005.6
20260507010008 58 160 5.2 17.4 0.06 0.31 0.31 90 1005.5
20260507005510 58 227 5.2 17.4 0.07 0.31 0.31 90 1005.6
20260507005007 58 204 6.1 17.4 0.07 0.30 0.30 90 1005.4
20260507004510 58 177 7.0 21.7 0.08 0.30 0.30 89 1005.6
20260507004002 58 155 7.0 21.7 0.10 0.30 0.30 90 1005.6
20260507003500 58 161 6.1 21.7 0.11 0.30 0.30 90 1005.6
20260507003023 58 177 5.2 13.9 0.12 0.30 0.30 90 1005.6
20260507002505 58 178 5.2 13.0 0.12 0.29 0.29 90 1005.6
20260507002005 57 196 5.2 13.9 0.13 0.27 0.27 89 1005.7
20260507001004 57 200 6.1 19.1 0.14 0.25 0.25 89 1005.6
20260507000501 57 226 5.2 15.6 0.15 0.25 0.25 89 1005.6
20260506235504 57 188 5.2 11.3 0.17 0.24 0.24 89 1005.5
20260506234504 57 195 6.1 13.0 0.17 0.21 0.21 89 1005.7
20260506234004 57 161 5.2 13.0 0.15 0.19 0.19 89 1005.7
20260506233510 57 223 5.2 12.2 0.15 0.19 0.19 89 1005.5
20260506233004 57 182 6.1 22.6 0.15 0.18 0.18 89 1005.5
20260506232551 57 205 7.0 22.6 0.15 0.17 0.17 89 1005.5
20260506232003 57 178 7.8 17.4 0.12 0.14 0.14 88 1005.4
20260506231503 57 177 7.0 19.1 0.10 0.12 0.12 88 1005.6
20260506230504 57 190 6.1 17.4 0.08 0.10 0.10 88 1005.6
20260506230005 57 201 6.1 16.5 0.06 0.08 0.08 88 1005.7
20260506225522 57 96 6.1 16.5 0.05 0.07 0.07 87 1005.6
20260506225000 57 166 6.1 12.2 0.04 0.05 0.05 87 1005.6
20260506224504 58 178 6.1 12.2 0.03 0.04 0.04 87 1005.6
20260506224010 58 163 7.0 16.5 0.03 0.04 0.04 86 1005.7
20260506223507 58 195 7.0 16.5 0.03 0.04 0.04 86 1005.7
20260506223022 58 258 7.0 20.0 0.02 0.03 0.03 85 1005.9
20260506222501 58 143 7.0 20.9 0.01 0.02 0.02 85 1006.0
20260506222012 59 228 7.0 20.9 0.02 0.02 0.02 85 1006.0
20260506221512 59 148 6.1 21.7 0.02 0.02 0.02 85 1005.9
20260506221001 59 243 7.0 21.7 0.02 0.02 0.02 85 1006.0
20260506220510 59 152 7.0 20.9 0.02 0.02 0.02 84 1006.0
20260506220009 59 174 7.0 17.4 0.02 0.02 0.02 84 1006.0
20260506215500 59 212 6.1 17.4 0.02 0.02 0.02 84 1006.0
20260506214503 59 155 7.0 20.9 0.01 0.01 0.01 83 1005.9
20260506213514 59 157 6.1 15.6 0.01 0.01 0.01 83 1006.1
20260506213025 60 194 6.1 15.6 0.01 0.01 0.01 82 1006.2
20260506212510 60 122 7.0 16.5 0.01 0.01 0.01 81 1006.3
20260506211002 62 146 6.1 15.6 0.00 0.00 0.00 77 1006.3
20260506210506 62 218 6.1 17.4 0.00 0.00 0.00 76 1006.4
20260506205459 62 167 7.0 20.9 0.00 0.00 0.00 76 1006.4
20260506205009 62 167 7.0 20.9 0.00 0.00 0.00 76 1006.3
20260506204516 62 154 6.1 17.4 0.00 0.00 0.00 75 1006.5
20260506204001 62 246 7.0 17.4 0.00 0.00 0.00 75 1006.4
20260506203513 62 106 6.1 16.5 0.00 0.00 0.00 75 1006.4
20260506202514 62 144 7.0 21.7 0.00 0.00 0.00 76 1006.6
20260506202026 62 177 6.1 13.9 0.00 0.00 0.00 77 1006.6
20260506201004 62 128 6.1 16.5 0.00 0.00 0.00 77 1006.8
20260506200504 62 141 6.1 16.5 0.00 0.00 0.00 74 1006.9
20260506195504 62 188 7.0 16.5 0.00 0.00 0.00 72 1007.0
20260506195000 63 281 7.0 16.5 0.00 0.00 0.00 72 1007.1
20260506194501 63 197 7.0 16.5 0.00 0.00 0.00 72 1007.0
20260506194000 63 220 7.0 16.5 0.00 0.00 0.00 72 1007.1
20260506193002 63 173 7.0 15.6 0.00 0.00 0.00 71 1007.1
20260506191005 63 150 7.0 20.9 0.00 0.00 0.00 71 1007.1
20260506190536 63 173 7.0 20.9 0.00 0.00 0.00 71 1007.1
20260506190007 64 157 7.8 19.1 0.00 0.00 0.00 70 1007.1
20260506185517 64 178 7.8 20.0 0.00 0.00 0.00 70 1007.2
20260506185027 64 203 7.8 20.0 0.00 0.00 0.00 69 1007.2
20260506184501 64 207 7.8 17.4 0.00 0.00 0.00 70 1007.3
20260506184003 65 236 7.8 24.3 0.00 0.00 0.00 69 1007.3
20260506183459 65 143 6.1 24.3 0.00 0.00 0.00 68 1007.4
20260506183011 65 144 7.0 21.7 0.00 0.00 0.00 68 1007.4
20260506182507 66 245 6.1 21.7 0.00 0.00 0.00 68 1007.5
20260506182005 66 191 5.2 12.2 0.00 0.00 0.00 67 1007.7
20260506181002 66 195 6.1 18.2 0.00 0.00 0.00 67 1007.7
20260506180506 67 175 7.0 18.2 0.00 0.00 0.00 65 1008.0
20260506180007 67 125 7.0 20.0 0.00 0.00 0.00 65 1008.0
20260506175500 67 197 8.7 23.5 0.00 0.00 0.00 64 1008.2
20260506175001 68 172 9.6 23.5 0.00 0.00 0.00 64 1008.1
20260506174459 68 207 7.0 23.5 0.00 0.00 0.00 64 1008.2
20260506174000 69 181 6.1 20.0 0.00 0.00 0.00 64 1008.2
20260506172959 68 47 8.7 19.1 0.00 0.00 0.00 64 1008.1
20260506172500 67 142 9.6 21.7 0.00 0.00 0.00 65 1008.1
20260506172000 67 135 8.7 21.7 0.00 0.00 0.00 67 1008.2
20260506171500 67 201 7.8 19.1 0.00 0.00 0.00 65 1008.2
20260506171000 66 140 8.7 19.1 0.00 0.00 0.00 67 1008.3
20260506170500 67 159 7.0 18.2 0.00 0.00 0.00 66 1008.4
20260506165459 67 132 7.0 18.2 0.00 0.00 0.00 65 1008.7
20260506165000 68 173 7.8 20.0 0.00 0.00 0.00 66 1008.8
20260506164500 67 200 9.6 20.0 0.00 0.00 0.00 66 1008.6
20260506163500 68 251 7.0 20.0 0.00 0.00 0.00 64 1008.7
20260506163001 68 170 7.8 20.9 0.00 0.00 0.00 64 1008.9
20260506162001 68 183 7.8 21.7 0.00 0.00 0.00 63 1009.0
20260506161500 69 186 7.8 21.7 0.00 0.00 0.00 63 1009.2
20260506161000 69 205 7.8 21.7 0.00 0.00 0.00 61 1009.0
20260506160459 70 227 7.8 21.7 0.00 0.00 0.00 62 1009.0
20260506160001 69 234 7.0 20.9 0.00 0.00 0.00 63 1009.0
20260506155459 70 171 7.8 22.6 0.00 0.00 0.00 63 1009.2
20260506154459 68 109 7.8 24.3 0.00 0.00 0.00 63 1009.4
20260506154010 68 148 7.8 24.3 0.00 0.00 0.00 63 1009.4
20260506153507 69 201 7.8 20.9 0.00 0.00 0.00 63 1009.4
20260506153000 67 192 8.7 24.3 0.00 0.00 0.00 65 1009.7
20260506152500 68 173 8.7 24.3 0.00 0.00 0.00 66 1009.7
20260506152001 67 203 7.8 20.0 0.00 0.00 0.00 66 1009.6
20260506150959 67 174 6.1 17.4 0.00 0.00 0.00 65 1009.5
20260506150459 67 170 6.1 13.9 0.00 0.00 0.00 66 1009.3
20260506145457 67 167 7.8 17.4 0.00 0.00 0.00 66 1009.4
20260506144959 68 220 7.8 23.5 0.00 0.00 0.00 65 1009.4
20260506144458 68 194 7.0 23.5 0.00 0.00 0.00 63 1009.5
20260506143959 68 146 7.0 21.7 0.00 0.00 0.00 64 1009.5
20260506143500 68 130 7.8 21.7 0.00 0.00 0.00 63 1009.4
20260506142959 67 89 9.6 22.6 0.00 0.00 0.00 64 1009.3
20260506142458 68 201 7.8 22.6 0.00 0.00 0.00 62 1009.3
20260506140959 69 42 7.8 17.4 0.00 0.00 0.00 63 1009.4
20260506140004 68 251 7.0 15.6 0.00 0.00 0.00 64 1009.7
20260506135500 68 195 7.0 23.5 0.00 0.00 0.00 65 1009.8
20260506135000 67 168 7.0 23.5 0.00 0.00 0.00 64 1010.0
20260506132002 66 188 6.1 17.4 0.00 0.00 0.00 69 1009.8
20260506131032 65 202 6.1 17.4 0.00 0.00 0.00 70 1009.8
20260506130501 65 181 7.8 19.1 0.00 0.00 0.00 70 1009.6
20260506130008 65 242 7.8 20.0 0.00 0.00 0.00 70 1009.6
20260506125501 65 125 7.8 20.0 0.00 0.00 0.00 71 1009.5
20260506125005 64 188 7.8 19.1 0.00 0.00 0.00 72 1009.6
20260506124512 63 168 7.0 17.4 0.00 0.00 0.00 74 1009.7
20260506124008 62 229 7.0 20.9 0.00 0.00 0.00 75 1009.8
20260506123544 62 150 7.8 20.9 0.00 0.00 0.00 75 1010.0
20260506123004 62 200 8.7 25.2 0.00 0.00 0.00 75 1009.9
20260506122500 62 189 7.0 25.2 0.00 0.00 0.00 75 1009.9
20260506121501 63 194 7.8 20.9 0.00 0.00 0.00 74 1010.1
20260506120503 62 157 7.0 23.5 0.00 0.00 0.00 78 1010.2
20260506114505 60 146 7.0 17.4 0.00 0.00 0.00 79 1010.5
20260506114040 60 160 6.1 13.9 0.00 0.00 0.00 80 1010.6
20260506113531 60 175 7.0 19.1 0.00 0.00 0.00 80 1010.6
20260506112510 59 158 6.1 19.1 0.00 0.00 0.00 80 1010.5
20260506112002 59 136 5.2 20.0 0.00 0.00 0.00 80 1010.4
20260506111510 59 209 5.2 20.0 0.00 0.00 0.00 80 1010.4
20260506111012 59 160 6.1 19.1 0.00 0.00 0.00 80 1010.4
20260506110529 59 167 5.2 12.2 0.00 0.00 0.00 80 1010.5
20260506110004 59 169 5.2 13.0 0.00 0.00 0.00 81 1010.4
20260506105510 59 211 7.0 16.5 0.00 0.00 0.00 81 1010.4
20260506105004 59 208 7.0 16.5 0.00 0.00 0.00 81 1010.4
20260506104508 59 170 6.1 18.2 0.00 0.00 0.00 81 1010.4
20260506103509 59 176 6.1 13.0 0.00 0.00 0.00 82 1010.4
20260506103023 59 184 6.1 19.1 0.00 0.00 0.00 81 1010.3
20260506102502 59 222 6.1 19.1 0.00 0.00 0.00 81 1010.4
20260506102005 59 152 6.1 13.9 0.00 0.00 0.00 82 1010.2
20260506101515 59 199 7.0 17.4 0.00 0.00 0.00 82 1010.2
20260506100503 58 132 5.2 12.2 0.00 0.00 0.00 82 1010.0
20260506100008 58 156 5.2 13.0 0.00 0.00 0.00 82 1010.1
20260506095502 58 155 5.2 18.2 0.00 0.00 0.00 83 1010.1
20260506094511 58 169 5.2 18.2 0.00 0.00 0.00 83 1010.2
20260506094001 58 121 5.2 11.3 0.00 0.00 0.00 83 1010.2
20260506093514 58 152 5.2 18.2 0.00 0.00 0.00 82 1010.1
20260506093006 58 199 6.1 18.2 0.00 0.00 0.00 82 1010.2
20260506092502 59 201 6.1 13.0 0.00 0.00 0.00 82 1010.3
20260506091504 59 129 7.0 17.4 0.00 0.00 0.00 82 1010.2
20260506090502 59 183 7.0 17.4 0.00 0.00 0.00 82 1010.3
20260506090025 59 128 6.1 13.0 0.00 0.00 0.00 82 1010.3
20260506084505 59 153 6.1 13.9 0.00 0.00 0.00 82 1010.2
20260506084004 59 155 7.0 16.5 0.00 0.00 0.00 82 1010.3
20260506083006 59 178 7.0 13.9 0.00 0.00 0.00 82 1010.3
20260506082001 59 198 7.0 18.2 0.00 0.00 0.00 82 1010.4
20260506081503 59 209 7.8 20.9 0.00 0.00 0.00 82 1010.4
20260506081001 58 171 7.0 20.9 0.00 0.00 0.00 82 1010.3
20260506080509 59 159 7.0 20.9 0.00 0.00 0.00 81 1010.3
20260506073458 59 187 7.0 20.9 0.00 0.00 0.00 80 1010.3
20260506073012 59 168 8.7 25.2 0.00 0.00 0.00 79 1010.3
20260506072002 59 194 7.0 25.2 0.00 0.00 0.00 79 1010.3
20260506070517 59 164 7.0 21.7 0.00 0.00 0.00 79 1010.3